Voltar ao catálogo

DELTA 1 DEB

AtivoSSO
NORAD 13563·DEBRIS·🇺🇸 United States

Lançado Mar 5, 1978 de Vandenberg Space Force Base

Loading…

Próximas Passagens (próximas 24 horas)

TLE

AtualizadoSource: Space-Track

Época: Sep 13, 2026, 00:56 UTC

1 13563U 78026FA  26256.03912692  .00000170  00000-0  95607-4 0  9993
2 13563  98.8559 280.4081 0043746  62.7153 352.2796 14.22314310295488

Acompanhe DELTA 1 DEB em tempo real com AllMySat

Download on the App Store